TimeMST,TemperatureF,Dew PointF,Humidity,Sea Level PressureIn,VisibilityMPH,Wind Direction,Wind SpeedMPH,Gust SpeedMPH,PrecipitationIn,Events,Conditions,WindDirDegrees,DateUTC
12:53 AM,30.9,26.1,82,29.93,10.0,SW,4.6,-,N/A,,Clear,230,2013-03-03 07:53:00
1:53 AM,32.0,27.0,82,29.89,10.0,SSW,3.5,-,N/A,,Clear,200,2013-03-03 08:53:00
2:53 AM,33.1,28.0,82,29.84,10.0,SSW,3.5,-,N/A,,Clear,210,2013-03-03 09:53:00
3:53 AM,36.0,28.0,73,29.81,10.0,WSW,5.8,-,N/A,,Partly Cloudy,240,2013-03-03 10:53:00
4:53 AM,37.0,28.0,70,29.79,10.0,WSW,4.6,-,N/A,,Clear,250,2013-03-03 11:53:00
5:53 AM,37.0,28.0,70,29.77,10.0,Calm,Calm,-,N/A,,Clear,0,2013-03-03 12:53:00
6:53 AM,39.9,28.0,63,29.76,10.0,SW,11.5,-,N/A,,Clear,220,2013-03-03 13:53:00
7:53 AM,48.0,27.0,44,29.73,10.0,West,12.7,-,N/A,,Clear,260,2013-03-03 14:53:00
8:53 AM,53.1,26.1,35,29.71,10.0,West,15.0,-,N/A,,Clear,270,2013-03-03 15:53:00
9:53 AM,55.9,26.1,32,29.68,10.0,West,18.4,-,N/A,,Partly Cloudy,270,2013-03-03 16:53:00
10:53 AM,59.0,25.0,27,29.64,10.0,West,21.9,31.1,N/A,,Clear,280,2013-03-03 17:53:00
11:53 AM,62.1,24.1,23,29.61,10.0,WNW,23.0,33.4,N/A,,Clear,290,2013-03-03 18:53:00
12:53 PM,64.0,25.0,23,29.57,10.0,NW,24.2,35.7,N/A,,Clear,310,2013-03-03 19:53:00
1:53 PM,64.0,25.0,23,29.54,10.0,WNW,25.3,33.4,N/A,,Clear,290,2013-03-03 20:53:00
2:53 PM,62.1,26.1,25,29.55,10.0,WNW,23.0,27.6,N/A,,Partly Cloudy,300,2013-03-03 21:53:00
3:53 PM,60.1,27.0,28,29.54,10.0,West,23.0,28.8,N/A,,Clear,280,2013-03-03 22:53:00
4:53 PM,57.9,28.0,32,29.54,10.0,West,21.9,28.8,N/A,,Clear,270,2013-03-03 23:53:00
5:53 PM,51.1,30.0,44,29.57,10.0,West,17.3,-,N/A,,Clear,260,2013-03-04 00:53:00
6:53 PM,46.9,30.0,52,29.58,10.0,West,13.8,-,N/A,,Clear,260,2013-03-04 01:53:00
7:53 PM,44.1,28.9,55,29.57,10.0,West,9.2,-,N/A,,Clear,270,2013-03-04 02:53:00
8:53 PM,41.0,30.9,67,29.56,10.0,West,11.5,-,N/A,,Clear,260,2013-03-04 03:53:00
9:53 PM,39.9,30.9,70,29.56,10.0,WSW,11.5,-,N/A,,Clear,240,2013-03-04 04:53:00
10:53 PM,41.0,30.9,67,29.58,10.0,WNW,18.4,25.3,N/A,,Clear,300,2013-03-04 05:53:00
11:53 PM,34.0,26.1,73,29.65,10.0,NW,19.6,25.3,N/A,,Clear,320,2013-03-04 06:53:00